Wind_Gust
6 5 8 8 4 6 2 6 6 9 4 3 5 4 5 3 8 8 6 6 10 6 4 8 8 12 14 19 17 13 12 17 12 22 16 12 7 16 12 17 19 17 19 17 15 16 17 17 19 20 21 20 21 20 21 20 20 20 21 21 20 20 20 19 19 19 18 18 18 18 19 18 17 16 16 16 14 12 11 15 15 15 16 15 16 16 16 16 15 15 16 17 17 17 17 16 14
2 5 6 3 6 5 5 4 11 6 10 8 9 3 7 7 11 17 20 13 9 13 4 11 14 22 19 19 19 18 8 12 9 9 8 9 16 13 13 18 21 22 19 16 15 14 14 16 19 18 20 21 20 21 21 20 20 20 20 21 20 19 20 19 19 19 19 18 18 18 17 18 17 17 16 16 14 12 12 15 17 16 15 16 16 16 16 15 15 15 16 16 16 16 15 14 13
2 7 9 2 5 6 3 5 6 3 5 5 11 6 6 7 14 18 14 9 12 14 11 14 15 14 14 13 11 14 13 8 12 8 12 17 20 11 15 16 18 19 19 16 14 15 14 15 20 19 21 20 21 21 21 20 20 20 20 21 20 19 19 19 19 18 18 18 18 18 18 17 17 16 17 15 11 5 13 15 17 17 16 16 16 16 15 15 15 15 15 15 15 15 15 14 12
6 3 16 9 7 7 6 8 6 5 3 8 11 7 4 3 9 9 6 12 14 18 16 13 13 7 15 9 16 5 9 17 12 16 16 20 15 17 18 17 17 16 15 15 13 14 14 17 20 19 20 20 21 20 20 20 19 20 20 20 20 18 19 19 19 17 17 18 17 17 18 17 15 13 11 9 7 7 8 16 17 16 16 15 15 15 15 14 14 14 15 15 15 15 14 13 12
9 5 5 6 11 5 6 5 5 5 3 7 7 8 4 4 12 11 8 11 12 8 7 12 18 3 3 11 11 16 12 12 13 9 16 10 16 18 18 17 17 17 15 14 15 15 14 20 18 18 20 21 20 20 20 20 19 19 19 19 20 18 18 18 18 17 17 17 18 17 16 16 13 11 9 9 7 5 13 13 16 16 15 14 14 14 13 12 12 13 14 14 14 15 14 13 13
12 9 4 4 6 6 6 5 4 4 11 9 6 10 5 6 5 15 13 11 11 6 6 3 14 12 9 7 9 12 13 12 14 10 18 13 22 20 19 18 17 16 14 14 15 13 14 22 20 18 18 21 21 20 20 19 19 19 19 19 19 18 18 18 18 17 18 16 17 17 16 15 13 10 10 10 10 15 16 17 17 16 15 15 14 12 12 11 12 12 13 14 15 14 14 13 14
14 10 8 6 10 6 10 6 9 7 14 10 11 11 11 5 6 17 16 8 12 10 5 9 15 12 11 9 7 6 9 15 16 13 15 23 23 21 19 18 17 16 14 16 15 13 14 20 18 18 18 21 20 20 19 19 19 19 18 18 19 18 18 18 18 17 18 17 16 16 16 15 13 11 10 11 13 15 18 19 18 15 14 14 13 12 12 11 12 12 13 14 14 14 14 15 15
3 5 10 6 8 6 5 6 8 10 11 12 8 8 8 5 10 13 25 21 15 14 5 9 12 15 6 3 13 8 12 12 13 20 24 26 23 21 19 18 18 16 17 14 14 12 18 20 19 18 19 20 20 20 19 19 19 19 19 18 18 18 17 18 18 17 18 17 15 15 14 13 13 12 11 12 14 15 17 18 18 15 13 12 12 11 10 10 11 11 12 13 13 14 15 15 15
6 6 3 5 7 9 5 12 10 6 12 6 11 9 6 10 14 14 20 15 9 5 15 13 7 18 12 4 7 8 8 12 15 22 24 27 25 23 21 17 19 18 18 17 15 13 13 19 18 18 19 20 20 20 19 19 18 18 18 17 17 17 17 17 17 17 17 16 15 14 13 13 12 13 12 13 14 15 16 16 16 15 13 13 12 11 10 9 10 10 11 13 13 14 15 15 15
7 5 8 14 9 11 7 14 5 10 12 10 10 9 7 8 8 19 22 8 10 14 11 9 6 7 7 7 6 4 8 14 20 20 21 24 25 22 18 17 16 21 21 17 16 14 14 21 20 17 17 19 18 19 18 18 17 17 17 16 16 15 16 16 17 17 17 16 15 14 13 12 12 11 13 12 13 13 13 14 15 14 13 12 11 10 10 9 9 10 12 13 13 14 14 14 14
10 9 7 10 7 11 14 16 17 4 5 8 11 11 9 7 9 8 7 7 11 9 10 10 10 11 8 5 7 5 11 18 24 24 21 22 21 20 19 16 16 18 22 19 15 14 16 16 24 19 18 17 16 16 16 15 15 15 15 14 14 14 15 16 17 17 16 16 15 14 13 12 12 11 12 13 13 13 12 12 12 13 12 11 11 10 9 9 9 10 12 12 13 13 13 13 13
8 7 6 11 14 14 13 15 22 9 5 5 22 12 5 11 11 10 11 11 9 11 7 7 19 14 7 6 7 7 11 12 17 23 22 20 18 17 18 16 16 14 16 19 16 13 13 14 16 20 19 16 15 16 14 15 14 13 14 14 15 15 15 16 16 17 17 16 15 14 13 12 12 12 12 13 12 12 11 10 11 11 11 11 10 9 8 8 9 10 11 12 12 12 12 13 13
9 5 8 10 14 7 7 7 21 8 6 14 19 11 7 8 12 14 12 14 12 10 13 12 6 10 11 6 6 7 10 8 12 21 22 19 16 17 14 16 16 16 17 16 15 14 12 11 14 15 16 20 16 18 16 16 14 14 14 15 15 15 15 15 16 16 16 15 14 13 13 13 12 11 12 13 12 12 11 11 11 10 10 10 9 8 8 8 9 10 11 11 11 12 12 12 12
13 13 11 14 4 8 12 10 10 16 17 15 11 7 4 9 9 16 15 11 13 22 19 16 11 7 6 9 7 12 11 9 15 16 19 17 16 15 16 15 16 17 17 16 14 13 12 10 11 11 15 14 13 17 17 18 15 15 15 15 15 15 15 15 14 14 14 13 13 13 13 13 12 12 12 12 12 12 13 12 11 10 10 8 8 7 7 8 9 9 10 11 10 10 11 11 11
21 12 9 11 11 6 9 20 14 21 27 9 11 10 5 6 8 10 18 20 15 8 11 16 16 9 14 14 14 21 17 16 17 16 19 17 15 14 15 15 15 15 15 14 13 13 12 10 10 11 11 11 11 10 11 16 19 18 17 17 16 15 14 13 14 14 13 13 13 13 12 13 12 12 13 12 11 13 12 11 11 8 9 7 6 7 7 7 8 9 10 9 9 9 10 10 10
16 16 20 17 20 14 16 13 7 13 36 12 10 12 9 6 8 10 9 13 12 4 21 22 13 22 9 18 13 24 23 21 18 19 19 17 15 13 14 15 16 15 14 14 13 12 12 11 10 12 12 11 10 9 10 10 16 18 18 17 17 16 15 14 13 13 14 14 13 13 14 11 11 10 13 10 12 12 12 7 7 9 8 7 5 5 7 7 8 8 8 7 8 9 9 9 9
7 14 17 25 30 18 15 15 13 39 23 8 6 9 9 7 4 4 5 14 17 13 11 8 21 9 16 20 11 23 25 23 21 22 20 17 17 16 14 14 14 13 13 14 14 14 12 13 13 13 14 13 11 12 10 9 13 17 15 17 17 16 15 14 13 14 13 12 12 12 11 8 5 5 7 5 10 6 8 8 7 8 5 6 4 4 6 7 7 7 7 7 7 8 8 9 9
9 25 26 27 27 27 16 21 20 7 21 13 5 7 12 7 5 7 9 13 10 15 9 7 11 11 9 4 19 23 22 23 25 25 22 21 19 20 20 17 19 22 21 19 13 13 15 14 17 15 15 15 13 12 10 9 10 14 8 9 10 13 12 11 10 5 11 3 12 10 6 6 4 5 2 10 3 6 7 10 9 8 6 5 4 4 5 5 6 6 7 8 8 8 9 7 6
18 15 23 33 23 26 16 18 16 14 19 18 5 5 9 9 10 10 6 4 17 8 5 6 7 9 14 16 20 23 22 21 22 24 27 27 23 23 22 19 21 20 22 21 17 15 15 16 15 16 14 14 14 12 11 10 8 8 9 9 10 10 9 8 4 6 4 5 4 5 6 4 5 3 3 5 6 8 6 10 9 8 7 6 5 5 5 6 5 7 8 9 9 9 7 6 6
14 17 26 29 11 11 15 13 14 17 12 17 12 5 6 8 11 7 7 12 15 17 15 5 6 13 16 17 23 23 24 22 20 21 22 23 22 23 21 21 21 21 21 21 21 16 16 17 16 16 16 15 15 12 11 10 7 8 8 8 8 8 7 8 7 5 4 5 5 5 6 5 5 5 8 13 10 6 7 9 9 8 7 6 6 7 7 7 7 7 9 9 7 6 6 6 7
12 18 29 21 11 13 10 10 14 14 13 18 17 4 6 6 8 9 16 14 9 14 12 12 18 22 23 24 26 25 23 22 19 17 20 20 18 18 24 27 27 24 20 18 16 18 18 16 16 16 15 15 14 13 13 11 8 9 8 9 8 8 7 7 8 7 5 5 5 5 5 4 5 6 2 3 5 6 4 3 4 5 6 6 7 5 5 5 6 7 7 7 7 6 7 7 7
10 21 19 7 12 15 11 15 14 14 12 12 16 14 13 6 6 13 19 15 15 14 11 16 17 14 21 20 21 20 21 22 20 19 22 24 25 22 15 12 8 11 15 19 22 19 18 17 16 16 16 15 15 13 13 13 12 10 10 9 8 7 7 7 7 8 6 5 6 5 5 4 6 6 4 3 4 6 5 4 5 5 5 5 5 4 4 5 5 5 5 6 6 5 7 6 7
25 15 9 11 7 14 10 11 12 13 13 10 18 24 9 8 7 10 17 20 16 16 16 19 20 27 29 28 25 21 21 23 23 24 23 22 20 18 19 18 21 20 19 20 19 18 20 18 17 16 16 16 14 13 12 13 11 10 10 11 10 8 7 8 7 7 6 6 6 6 7 6 6 7 7 4 5 5 6 6 5 4 4 4 4 3 5 5 4 5 4 5 5 7 7 7 8
14 35 8 12 10 16 9 16 12 13 15 18 12 14 19 14 12 9 12 11 14 20 22 18 19 26 24 24 28 32 31 29 30 27 24 25 26 25 24 23 20 17 18 18 18 18 21 21 18 17 17 16 15 14 13 13 10 11 12 15 12 11 10 10 8 8 7 7 6 6 6 6 7 8 7 6 6 5 5 5 4 4 4 4 5 4 4 4 5 5 5 6 6 6 7 7 9
21 31 13 6 9 16 8 8 12 12 14 15 6 11 16 23 18 8 10 10 9 12 11 19 21 24 28 30 27 28 29 25 21 19 15 16 16 15 16 17 18 19 20 19 19 19 20 21 19 20 18 18 15 16 14 13 11 12 12 11 11 13 9 12 9 7 7 7 6 8 7 8 6 6 7 7 6 7 6 6 7 7 6 6 6 4 5 5 5 4 5 6 6 8 7 7 10
21 20 9 7 9 7 10 9 7 12 10 8 10 12 12 13 10 19 14 15 11 8 13 13 15 20 26 29 30 29 27 27 25 23 26 17 15 15 15 18 20 22 24 23 22 21 20 21 22 23 20 20 17 17 14 14 13 12 12 12 11 12 9 9 6 8 8 7 8 9 10 9 9 10 9 7 9 7 6 7 7 7 7 6 6 6 6 5 5 6 6 7 8 8 8 7 9
7 7 7 14 8 9 7 15 14 10 12 10 19 14 17 12 16 25 15 16 17 8 11 20 21 22 24 25 29 30 32 29 30 26 15 15 17 21 20 18 20 22 19 20 21 21 20 21 21 22 19 18 16 17 14 14 13 12 12 12 11 11 9 9 9 9 8 8 9 9 9 9 9 8 9 9 6 7 7 8 8 8 8 7 6 6 5 6 5 6 6 7 7 7 8 6 9
11 7 8 9 7 9 7 9 16 12 22 12 14 18 13 16 13 27 17 18 24 21 11 15 23 26 26 23 24 23 27 27 20 21 28 23 28 28 26 27 23 19 21 22 22 19 20 21 22 21 19 20 18 16 16 15 15 14 12 11 11 10 9 9 10 9 9 9 8 8 9 10 9 9 9 8 8 7 7 7 6 7 6 7 6 7 6 6 6 7 5 5 7 8 9 8 8
7 5 8 8 8 18 9 17 12 13 22 14 11 12 18 15 21 26 18 9 16 21 16 18 20 23 25 25 21 16 19 16 18 21 26 32 26 21 25 23 25 24 20 22 21 20 22 21 22 21 20 18 18 18 18 15 14 13 12 12 11 11 10 9 10 10 9 8 7 8 9 9 9 10 9 9 9 8 7 7 6 6 7 7 7 7 6 6 6 5 5 6 9 10 10 9 9
6 3 7 9 13 17 13 11 9 13 18 14 16 32 24 26 23 25 11 12 9 10 13 17 21 21 22 22 22 23 18 15 18 26 26 22 22 23 24 22 22 21 20 19 18 22 22 20 20 20 20 21 19 17 16 15 14 13 12 10 11 10 10 10 11 9 9 8 8 8 8 8 8 8 8 7 7 8 7 7 7 7 7 7 7 8 6 6 7 7 7 8 9 10 10 7 11
11 9 8 14 8 28 13 25 13 18 13 14 19 32 27 23 24 23 13 11 15 16 16 19 20 19 19 18 20 20 18 26 31 31 24 20 17 19 22 19 21 19 18 18 23 23 21 21 20 20 20 19 19 17 17 15 13 13 12 11 11 11 10 10 10 9 9 10 9 9 8 8 7 8 8 9 8 8 8 7 7 7 8 8 8 6 6 4 6 8 8 12 9 10 10 9 10
7 12 21 9 21 23 9 12 20 31 17 13 19 31 31 21 23 19 16 11 17 19 17 19 19 20 19 19 20 19 21 22 24 23 19 18 18 21 23 24 21 20 21 21 21 21 22 19 18 18 19 20 19 18 15 15 14 13 12 11 11 11 11 11 10 11 10 10 10 9 8 8 8 8 8 9 9 8 8 7 8 8 8 7 7 6 6 6 7 8 6 9 13 8 11 10 9
9 12 8 24 14 20 12 12 12 24 21 10 27 28 23 20 16 12 10 12 16 20 20 19 19 20 21 19 19 19 19 14 12 14 13 16 17 18 20 20 24 23 19 20 22 20 21 20 21 20 22 22 19 17 15 12 13 12 12 12 12 11 12 11 10 9 10 11 10 10 9 9 8 8 8 9 9 8 8 8 8 8 8 8 8 7 6 5 6 8 7 5 9 11 12 11 10
16 9 22 12 16 15 27 5 10 10 23 20 20 32 23 6 14 14 11 15 16 19 20 18 18 19 21 20 20 21 20 20 22 22 22 19 20 20 20 19 20 20 20 21 22 24 24 22 21 21 20 20 19 19 16 15 13 13 12 12 10 12 11 10 10 10 11 11 10 10 9 9 9 8 9 9 8 8 8 9 8 9 8 8 8 7 6 5 5 8 10 7 9 14 11 13 12
20 10 9 14 9 6 7 17 8 10 11 24 14 23 27 16 7 15 18 13 17 21 22 20 20 19 20 19 21 21 23 23 28 28 25 24 21 21 21 19 20 19 17 17 19 20 19 19 19 19 20 20 19 18 16 13 12 11 10 11 10 10 9 9 10 10 11 10 11 10 11 11 10 9 9 9 9 9 9 9 9 9 8 9 8 7 7 6 6 5 10 10 9 7 13 11 14
7 4 4 4 6 10 12 8 10 9 13 22 20 28 32 24 16 12 12 16 19 19 20 21 22 24 22 22 23 23 23 27 31 30 29 24 22 20 20 17 16 16 14 15 16 18 19 19 17 18 19 21 17 17 17 15 14 15 14 9 10 10 9 10 9 11 10 11 11 11 11 11 10 10 10 9 9 9 9 9 10 9 9 8 8 8 8 8 9 9 9 13 12 11 9 11 14
6 6 5 6 6 10 6 9 11 9 11 17 23 28 32 27 26 21 14 11 15 19 21 22 21 21 25 27 27 27 26 29 30 29 23 20 20 18 18 18 17 15 15 16 19 19 21 25 21 21 20 21 22 22 21 21 21 17 14 17 16 12 12 10 11 10 11 11 11 12 12 11 11 11 11 10 9 9 9 9 10 8 9 8 9 9 8 9 7 9 12 9 15 13 7 7 8
5 8 6 11 5 13 7 9 15 17 6 7 13 24 35 28 22 26 19 13 18 21 20 24 24 25 27 28 28 26 28 28 27 19 12 12 16 16 17 18 18 23 23 21 23 22 19 20 22 22 21 22 23 23 22 20 20 22 19 16 12 11 12 13 12 9 11 10 11 11 11 11 11 12 12 10 9 10 10 9 10 12 10 9 7 7 7 9 9 10 12 10 4 11 13 11 13
4 6 8 11 14 9 11 11 13 15 7 14 14 20 31 30 23 17 22 23 22 22 24 28 27 28 26 27 29 28 25 25 23 21 17 19 19 17 18 18 21 25 20 20 16 17 20 22 23 22 22 23 22 21 22 22 17 15 17 14 15 12 7 10 12 12 11 11 10 10 11 11 12 11 12 11 11 10 10 11 10 10 9 8 9 8 9 10 11 12 12 15 10 4 7 8 10
8 6 8 18 9 9 15 7 5 6 8 11 11 18 24 19 20 23 16 20 22 14 19 22 24 29 28 28 29 28 27 31 28 23 21 20 21 22 19 19 22 20 22 21 22 24 24 24 22 23 23 21 21 21 20 16 15 11 9 12 11 12 12 9 7 7 9 10 10 10 9 11 11 11 13 12 10 10 10 11 10 10 10 9 10 12 10 11 10 10 9 10 15 11 10 13 7
6 9 11 13 8 9 14 14 15 15 17 8 12 18 29 14 16 21 17 13 17 21 13 15 19 23 28 28 29 30 32 30 31 26 22 18 18 22 26 27 23 23 24 26 27 27 27 27 25 25 24 23 21 20 19 16 16 12 10 8 9 9 7 10 10 9 11 12 11 10 11 10 10 11 11 11 11 11 9 10 11 10 11 9 9 11 11 13 12 12 12 12 13 16 12 12 10
9 8 13 12 8 9 5 7 10 11 16 10 6 22 41 17 14 24 22 18 18 15 16 16 18 20 19 19 25 28 29 30 33 30 29 29 28 26 23 18 18 22 25 27 27 26 21 22 22 22 21 21 22 20 20 20 21 20 18 18 18 16 16 18 22 20 16 13 13 10 9 10 10 10 10 10 10 10 10 10 10 11 10 10 10 10 10 9 9 11 13 14 12 8 17 11 14
8 15 12 15 14 10 7 7 6 12 21 13 6 20 38 12 10 13 17 18 20 19 19 17 17 21 22 20 23 27 29 25 21 23 25 24 24 26 26 26 27 27 28 26 22 23 23 23 23 24 24 23 22 21 21 22 20 20 22 21 19 21 20 15 9 12 16 12 12 12 10 9 9 11 9 9 10 10 9 10 10 11 11 10 9 9 9 11 12 12 11 10 13 10 9 14 14
17 8 6 8 10 12 13 11 13 16 8 19 5 8 15 22 18 11 11 17 23 24 22 21 20 20 24 23 23 24 27 25 27 26 22 22 29 33 32 31 30 33 30 23 24 23 25 26 24 24 21 21 20 22 23 23 23 21 20 20 20 20 19 16 12 12 11 13 14 13 11 10 10 9 11 10 10 10 10 10 10 10 11 9 10 11 11 10 8 6 10 10 9 11 12 14 13
16 8 9 11 11 12 13 12 13 14 9 25 22 6 24 23 14 13 6 15 18 24 26 27 26 27 30 26 23 22 24 27 27 26 26 27 26 25 28 31 33 34 28 26 29 29 27 23 22 21 22 20 20 21 23 22 22 23 22 20 19 15 13 14 12 12 14 13 13 11 12 11 11 9 11 12 11 11 11 11 10 10 10 9 9 8 7 9 11 11 10 9 11 10 11 9 12
10 11 10 12 10 11 12 13 12 12 16 24 26 14 29 27 8 14 4 10 24 26 24 30 33 34 32 28 16 19 21 24 27 29 29 29 29 31 31 31 29 28 25 24 21 18 19 21 22 23 23 22 21 22 23 22 22 21 22 21 20 15 13 12 13 15 14 13 14 13 12 13 14 13 11 10 11 11 11 10 11 11 10 10 8 9 8 8 7 8 10 11 11 11 8 9 12
12 15 13 13 11 10 8 12 15 11 24 23 22 23 17 33 15 19 23 20 17 25 27 26 27 28 28 25 20 23 23 24 25 25 25 28 29 31 29 29 29 22 17 18 19 21 21 23 24 25 25 22 21 24 23 24 23 22 24 22 20 18 16 17 16 14 14 14 15 14 14 16 14 12 11 10 10 11 10 10 10 9 8 8 9 9 10 10 9 8 7 6 8 11 10 9 7
2 8 6 11 15 4 8 10 7 20 23 17 20 28 15 34 13 12 14 14 12 17 24 27 25 23 25 21 18 19 21 24 25 26 25 24 22 24 24 28 24 21 18 20 20 21 22 23 24 24 22 24 24 24 24 26 25 24 20 20 21 20 20 20 21 20 18 17 16 16 12 12 10 10 10 10 9 9 11 9 8 8 9 8 9 8 7 7 7 7 7 7 7 6 7 9 9
6 5 5 7 14 13 17 13 20 17 27 13 13 17 26 34 24 7 12 18 19 12 13 19 27 27 18 18 19 21 22 22 26 27 27 26 28 28 24 24 19 18 24 26 28 27 26 24 25 28 28 26 26 25 26 25 24 24 23 21 19 19 21 20 20 20 18 20 18 15 15 14 12 12 12 13 10 11 11 11 10 10 9 8 9 8 7 8 9 8 8 8 8 9 11 11 12
10 12 10 9 15 14 13 12 15 15 15 15 13 8 38 17 16 25 28 28 27 24 20 16 16 19 19 19 20 21 23 25 27 27 28 29 29 28 28 28 27 26 25 28 26 27 26 27 28 30 30 27 24 24 26 26 27 24 20 20 20 19 20 20 19 21 19 18 18 19 18 18 18 17 17 15 13 11 10 10 11 9 8 9 9 8 9 8 8 9 9 9 8 8 8 9 9
10 9 14 15 14 18 15 15 18 19 17 13 14 25 23 16 15 23 26 27 28 28 29 22 19 20 20 18 20 23 24 25 26 27 28 28 30 28 28 28 27 27 27 27 25 26 25 25 27 28 26 25 27 28 26 26 26 22 20 20 20 18 20 19 19 18 20 19 17 18 16 14 16 15 16 12 12 12 10 10 9 10 9 9 9 9 8 7 7 7 7 8 8 8 8 10 9
15 10 7 8 14 9 19 11 8 12 13 16 14 27 11 24 7 15 22 21 21 19 20 16 21 21 20 18 18 22 24 27 27 26 27 29 30 29 28 27 28 28 27 26 25 26 26 29 29 30 31 29 28 25 25 27 23 21 19 19 20 19 18 17 17 17 19 19 22 20 17 15 14 13 11 13 12 13 12 11 10 10 10 10 9 9 9 9 8 10 8 8 8 5 10 9 9
10 14 16 18 13 9 11 14 13 7 11 18 12 14 20 18 19 16 14 16 15 14 15 14 19 21 19 19 18 19 23 25 27 28 29 28 25 25 29 29 29 27 26 27 30 32 33 32 30 30 28 25 26 28 28 24 23 21 21 20 19 19 21 21 21 19 19 18 20 17 16 15 12 13 14 12 14 11 12 13 12 11 10 10 9 9 9 8 8 8 10 9 9 7 8 9 9
11 10 16 10 11 16 18 16 13 16 17 22 11 17 16 19 39 13 15 12 16 20 22 17 16 17 20 21 17 18 22 23 26 30 31 32 31 30 30 29 28 30 31 32 33 30 31 31 29 31 29 29 29 28 27 26 25 23 21 21 20 22 21 19 19 20 18 18 15 13 12 14 15 15 15 13 13 13 11 12 13 12 11 10 10 9 9 9 9 8 8 8 8 9 10 7 7
16 15 4 12 10 8 11 20 15 14 17 16 12 10 17 18 22 12 16 19 17 18 21 22 20 16 17 20 19 16 20 23 26 27 28 28 29 30 31 31 31 30 30 31 32 30 25 22 24 28 31 32 29 26 22 21 21 22 23 23 22 21 19 19 18 19 19 20 19 16 16 16 14 14 15 14 13 13 13 11 12 12 11 11 9 9 9 9 9 10 8 10 8 9 11 10 7
8 9 13 7 8 8 9 19 9 8 9 9 15 9 23 15 15 12 15 16 21 20 19 18 19 20 17 18 22 18 20 23 25 26 28 29 30 31 33 33 31 29 27 26 24 24 25 27 25 25 23 18 19 23 26 26 26 23 21 19 19 20 20 20 19 21 20 21 20 18 16 15 18 16 15 16 15 15 14 14 11 13 12 10 10 9 9 10 9 9 11 11 9 9 11 11 9
9 11 12 8 15 7 9 7 10 12 12 9 13 18 17 16 13 9 11 10 14 15 19 19 16 13 16 17 21 23 20 23 25 27 28 30 30 30 32 31 31 29 27 24 24 27 28 24 23 24 26 27 28 28 25 24 23 23 21 23 22 21 20 20 19 20 21 20 19 18 19 18 15 16 16 16 16 15 15 14 14 13 14 13 12 11 9 10 10 10 8 10 10 10 11 9 10
6 12 15 11 7 10 10 18 8 15 15 16 13 23 19 19 7 10 10 11 10 12 11 14 14 15 16 18 20 23 24 17 25 27 28 30 30 32 31 29 25 22 22 25 26 24 22 25 29 28 26 26 27 27 27 27 24 24 23 22 22 20 21 20 20 20 20 20 19 20 19 17 18 16 17 18 17 14 14 15 14 13 13 12 12 12 11 10 12 11 9 9 11 10 11 10 9
Wind_Speed
3 3 4 4 2 2 0 2 1 3 2 1 2 1 1 1 2 3 3 2 3 2 2 1 4 5 3 4 7 4 2 9 4 9 6 1 3 9 8 10 12 11 12 10 9 9 11 13 15 16 15 15 15 15 15 15 16 16 15 15 15 14 14 14 14 14 14 15 15 15 15 14 12 12 12 12 11 9 9 11 12 12 12 12 12 13 13 12 12 12 12 13 13 13 12 10 9
1 3 4 1 2 0 1 1 3 2 5 3 2 1 2 4 1 2 2 2 1 1 1 3 4 4 7 7 6 7 3 2 5 3 3 5 9 6 9 11 13 14 12 9 9 8 9 11 16 14 16 16 15 15 15 15 16 15 14 15 14 14 13 13 14 14 15 14 15 15 14 15 13 11 11 12 10 7 10 12 13 12 12 12 12 13 12 12 12 11 12 12 12 12 11 10 9
1 4 4 1 2 2 0 2 1 1 3 1 2 2 2 4 1 3 1 3 3 2 4 6 3 2 4 2 1 2 5 2 7 5 5 10 12 5 10 11 12 11 12 9 8 9 8 10 16 16 17 16 16 15 15 15 16 16 15 15 14 15 14 13 13 13 14 14 14 15 14 13 14 13 13 11 8 4 11 13 13 13 13 12 12 12 12 11 11 11 11 12 11 11 10 9 8
3 0 5 2 1 2 1 2 4 2 1 2 2 2 1 1 3 2 4 2 3 3 1 1 2 2 1 2 2 3 2 1 2 9 5 9 4 10 11 12 12 9 9 8 8 8 8 12 16 15 17 17 16 16 15 15 15 15 14 14 13 14 14 13 12 12 13 14 14 14 14 13 12 10 9 7 5 5 7 13 13 13 13 12 12 12 11 11 10 11 11 11 11 11 10 10 9
5 0 2 1 3 1 1 0 2 2 1 3 1 3 1 1 6 3 3 8 5 4 3 1 3 2 1 1 0 0 3 1 2 4 6 5 10 11 12 11 11 10 9 9 9 9 9 15 14 14 16 17 17 16 15 15 15 15 14 13 13 14 13 13 12 12 13 13 14 14 13 13 11 8 7 6 5 3 10 10 13 13 12 12 11 11 10 9 9 10 11 11 11 11 11 10 10
5 2 1 1 0 1 2 0 0 2 5 4 0 0 3 3 3 2 3 8 8 4 3 0 2 3 1 0 0 1 1 1 6 2 8 6 14 13 13 11 11 10 8 8 9 8 8 18 14 13 14 17 17 16 15 15 16 15 14 14 13 13 13 13 12 12 12 12 13 14 13 12 10 8 7 6 8 10 12 14 13 12 12 12 11 10 9 9 9 10 10 10 11 11 10 10 10
5 4 3 2 0 2 4 2 4 4 8 6 2 2 1 2 1 6 4 3 5 5 3 2 2 3 3 0 1 2 2 1 4 4 8 14 15 15 13 11 10 10 8 8 8 8 9 16 15 13 14 16 16 15 15 15 16 15 14 13 12 13 13 12 12 12 12 12 12 13 13 12 10 8 7 8 10 12 15 16 15 12 11 11 10 9 9 8 9 9 10 10 11 11 10 10 10
0 1 2 2 1 1 1 2 4 5 4 5 3 2 2 3 4 6 9 8 5 3 2 3 4 2 1 2 3 2 8 7 5 11 15 16 16 14 13 11 11 10 10 8 8 7 13 16 15 14 14 15 16 16 15 15 14 15 14 13 12 13 13 12 12 12 12 11 11 12 11 11 10 9 9 10 11 12 13 14 14 12 11 10 10 9 8 8 8 8 9 10 11 10 10 10 10
1 2 0 2 1 1 0 4 3 2 5 3 2 3 4 7 8 6 11 4 3 2 1 2 2 1 3 2 1 5 4 8 10 11 15 18 17 16 10 11 12 11 11 10 8 7 8 15 15 15 16 16 16 16 15 15 15 15 14 13 12 12 12 11 12 12 12 10 9 10 10 10 10 10 10 11 11 12 13 13 13 12 11 10 10 8 7 7 8 8 9 10 10 10 10 10 10
2 1 1 2 2 4 2 5 1 5 5 2 5 4 3 3 5 9 9 1 1 1 1 5 1 1 2 4 1 2 1 7 12 9 6 14 17 15 12 11 11 13 13 10 9 7 7 16 17 14 14 16 15 15 15 14 14 14 14 13 12 11 11 10 11 12 12 11 9 8 8 9 9 9 10 10 11 11 11 11 12 11 10 10 9 8 7 7 7 8 9 10 10 10 9 9 10
2 3 2 1 1 3 5 7 6 2 3 0 1 5 5 4 6 3 4 3 0 2 1 5 3 3 1 0 1 1 3 7 12 13 10 10 13 14 12 10 9 11 12 12 10 8 8 9 18 15 15 14 13 13 13 12 12 12 12 11 11 11 11 10 12 12 12 11 10 9 8 8 9 9 10 11 11 11 10 9 10 10 10 9 8 7 7 7 7 8 9 10 10 10 9 9 10
1 2 1 3 4 6 5 4 9 3 3 0 2 4 2 7 7 5 5 5 1 3 0 1 1 2 3 2 2 3 2 1 2 11 12 12 10 11 12 9 10 9 10 12 10 8 8 8 9 15 16 13 12 13 12 12 12 11 12 12 12 11 11 11 12 11 11 11 10 9 8 8 8 9 10 10 10 10 9 8 8 9 9 8 7 7 6 6 7 8 9 9 9 9 9 9 9
1 1 4 3 4 2 2 2 6 3 2 4 5 4 2 5 8 10 8 7 4 5 2 4 2 2 0 1 2 1 2 1 5 9 12 9 10 9 8 9 10 10 10 10 9 9 8 7 8 9 11 16 13 14 12 13 12 12 12 13 12 12 12 11 11 11 11 11 10 9 7 7 8 9 9 10 10 10 8 7 8 8 8 7 6 6 6 6 7 8 9 9 9 9 9 8 9
2 4 5 4 1 2 3 4 2 3 6 2 3 3 2 3 5 10 9 7 8 10 5 10 4 4 1 1 1 1 2 3 6 7 8 10 9 8 9 8 9 10 11 10 9 7 8 7 7 7 9 9 8 11 14 14 13 12 12 13 13 12 12 11 11 10 11 10 9 9 8 7 7 8 9 9 9 9 8 8 7 7 7 6 6 5 5 6 7 7 8 8 8 8 8 8 9
5 2 2 1 1 2 3 5 6 9 10 5 5 4 1 0 4 3 9 6 8 1 3 5 5 4 5 7 5 3 2 6 7 7 8 8 9 8 9 8 9 9 9 9 8 7 7 6 6 6 7 6 7 5 5 10 15 14 14 14 13 12 11 11 10 10 10 9 9 8 8 8 7 8 9 9 9 11 9 8 7 5 5 5 4 5 5 6 6 7 7 7 7 8 8 8 8
4 4 2 3 8 6 5 5 3 4 8 7 6 7 4 1 1 3 3 5 3 1 1 3 2 2 3 8 3 10 12 9 7 7 8 9 8 7 8 9 9 9 8 8 7 6 6 6 6 6 6 6 6 4 4 5 11 15 14 14 14 13 12 11 10 9 8 8 8 8 8 5 6 5 10 7 9 10 10 5 5 5 6 3 3 3 5 5 6 6 6 6 6 7 7 7 7
2 3 4 8 15 10 5 5 7 8 1 1 4 6 4 1 1 1 1 4 5 3 2 2 1 2 2 1 7 13 12 11 9 8 10 8 7 6 6 7 7 7 5 7 7 7 6 6 7 7 8 8 7 6 4 4 7 13 12 13 14 13 12 11 10 8 6 7 6 6 6 3 1 2 3 2 7 3 5 6 2 7 4 3 1 3 4 5 5 5 5 5 6 6 6 7 6
3 7 9 12 12 14 7 9 8 1 1 2 2 4 8 4 1 0 3 9 4 3 4 3 3 7 3 2 11 14 14 14 10 10 8 9 7 8 9 8 8 11 9 8 7 6 7 6 8 8 7 9 8 6 4 4 4 9 5 6 6 9 9 8 5 2 5 1 6 4 2 2 2 2 1 6 1 3 4 5 3 4 4 2 1 3 4 4 4 4 5 6 6 6 7 3 3
6 3 8 15 11 10 8 8 9 6 9 2 0 1 6 5 5 3 3 1 4 3 2 3 3 5 10 8 12 14 14 13 13 9 11 13 10 12 10 8 10 9 9 8 7 8 6 6 7 8 8 8 9 7 5 4 4 4 5 5 5 8 6 5 3 2 2 3 1 2 1 1 2 1 1 2 3 5 3 6 5 3 3 2 0 1 2 4 3 4 6 7 7 6 3 3 3
6 6 11 13 5 6 10 8 9 10 6 5 8 1 2 5 3 3 3 7 7 9 5 2 1 2 3 6 11 13 13 14 14 12 12 13 11 12 11 11 10 10 10 9 9 7 8 8 8 8 9 9 9 6 5 5 3 4 4 4 4 4 4 5 4 3 3 2 2 2 2 2 2 2 3 8 6 3 4 5 5 3 2 1 2 4 4 4 5 5 5 6 5 3 3 3 3
2 4 10 7 4 5 6 6 9 8 7 8 7 2 1 4 4 4 11 9 3 5 8 7 8 8 10 9 9 11 13 14 13 12 13 13 11 9 10 12 11 11 9 8 8 9 10 9 8 8 8 8 9 7 7 6 4 5 4 4 3 3 3 4 5 4 3 3 3 2 2 2 3 2 0 2 3 4 3 2 2 3 2 3 4 2 1 2 2 3 4 4 4 3 4 4 3
1 11 12 3 6 7 6 9 9 9 7 6 4 3 4 1 0 4 13 9 7 6 4 9 10 8 12 13 12 10 11 13 13 12 13 13 14 12 7 5 2 4 7 8 10 10 11 9 9 8 8 8 8 7 7 7 6 5 5 5 4 3 3 4 4 4 4 4 4 3 2 2 2 3 1 1 2 3 3 3 2 1 2 2 1 1 1 1 2 2 2 2 3 3 4 3 4
9 6 5 7 3 6 4 5 6 7 4 7 10 11 2 3 1 4 10 10 7 9 5 11 9 11 13 12 13 13 13 15 16 16 15 15 13 10 9 8 8 9 8 9 10 9 10 10 10 9 9 8 9 8 6 6 6 5 5 6 5 4 4 4 4 4 4 4 4 4 4 3 3 3 3 2 1 2 3 3 2 1 1 1 0 0 1 1 1 1 1 2 2 3 4 4 5
4 11 2 5 5 8 5 7 8 7 9 7 5 10 12 5 5 3 4 2 9 11 12 8 10 9 13 14 15 17 19 19 20 18 15 14 14 17 14 12 9 7 9 10 10 9 11 13 11 10 10 9 8 8 7 7 5 6 6 7 6 5 5 5 4 4 4 4 4 4 3 3 4 4 4 4 3 2 2 3 1 1 1 0 1 1 0 0 1 1 2 3 3 3 4 4 5
6 9 3 3 2 4 3 3 5 6 7 4 5 6 12 16 9 4 6 6 5 8 5 2 4 12 14 16 17 17 17 17 14 12 9 10 10 9 8 7 8 9 11 10 9 10 12 12 12 12 11 12 8 8 8 7 6 6 6 6 6 7 5 6 5 4 4 4 3 4 3 4 3 4 4 4 3 3 3 3 2 1 1 1 1 1 2 1 1 0 2 3 3 4 4 4 5
1 2 5 3 3 2 5 4 5 7 3 4 4 7 6 9 7 11 9 7 7 4 1 6 10 9 12 15 18 17 16 17 15 13 16 11 9 11 10 9 9 11 12 12 11 11 11 12 13 14 12 11 9 9 7 7 7 6 6 7 6 6 5 5 4 5 4 4 4 4 3 4 4 4 4 3 4 4 3 3 3 2 3 2 2 2 1 2 2 1 2 3 4 5 4 4 5
1 4 3 4 5 6 4 7 6 5 4 5 9 9 7 4 7 8 10 11 5 3 4 7 11 13 13 11 13 15 16 16 18 16 9 9 11 13 12 11 12 13 11 11 10 10 10 13 12 13 12 11 9 9 8 8 7 7 6 6 6 6 5 5 5 5 5 4 4 4 4 4 4 4 4 4 4 4 4 3 3 3 3 3 2 2 2 2 2 2 3 4 4 4 4 3 5
5 2 3 3 4 5 4 3 7 3 3 5 9 12 7 5 4 13 9 12 11 9 5 7 10 12 13 13 12 12 12 13 9 10 18 15 14 15 16 14 13 11 11 11 10 9 10 13 13 12 11 11 10 9 8 8 7 7 7 6 6 5 5 5 5 5 5 5 4 4 4 5 4 4 5 4 5 5 4 4 3 3 3 3 2 2 2 2 3 3 2 3 4 5 5 4 4
2 1 4 4 4 4 4 8 5 6 6 8 5 3 4 5 12 18 11 6 11 15 11 10 12 13 14 14 12 9 10 7 9 11 14 18 15 12 14 12 13 12 9 11 11 10 11 12 12 12 11 11 10 10 8 7 7 7 7 7 6 6 5 5 6 5 5 5 4 4 5 5 5 5 5 5 5 5 5 5 4 3 3 3 3 3 3 3 3 3 3 3 5 6 6 5 5
1 1 2 5 5 7 9 3 4 6 4 10 8 10 10 13 15 15 8 7 5 7 9 11 11 12 13 14 12 11 7 8 11 15 14 12 10 13 14 13 13 12 10 8 9 11 10 8 9 9 10 11 11 9 8 7 7 7 7 6 6 6 5 6 6 6 5 5 5 4 5 5 5 4 5 5 5 5 4 4 4 3 3 4 3 4 3 3 4 4 4 5 4 5 6 5 6
2 3 3 5 3 8 3 6 5 11 5 9 11 13 12 12 15 12 6 6 8 9 10 11 11 11 11 11 12 11 11 12 16 17 14 9 5 7 11 11 13 11 8 9 12 11 11 10 9 8 11 10 11 10 10 8 7 7 7 6 6 6 6 6 6 6 5 5 5 4 5 5 5 5 5 5 5 5 5 4 4 4 4 4 4 3 3 2 3 5 5 6 5 6 5 4 6
1 1 6 1 9 8 1 3 8 15 3 9 11 12 14 11 14 10 7 4 7 9 8 10 11 11 11 11 13 12 13 13 9 4 6 9 9 9 11 14 13 13 12 11 10 9 10 10 11 10 11 12 11 10 9 8 8 7 7 7 6 7 6 6 6 6 6 5 5 5 5 5 5 5 5 5 5 5 5 4 4 4 4 4 3 3 2 3 4 4 3 6 7 5 6 6 5
2 6 3 5 5 8 2 6 5 10 4 4 17 10 10 9 9 8 5 8 8 9 8 10 11 12 11 11 11 11 11 9 7 9 8 7 8 10 11 11 12 13 10 11 11 9 9 10 11 12 13 13 11 10 10 8 7 7 7 7 7 7 7 6 6 5 5 5 5 5 5 5 5 5 5 6 5 5 5 4 4 4 4 4 4 3 3 2 4 4 4 3 5 6 7 7 6
5 0 4 1 1 1 5 3 1 4 6 7 8 11 12 3 10 9 6 10 9 9 9 9 11 11 12 11 11 11 12 12 13 13 14 12 10 11 9 9 8 8 9 10 11 12 11 9 9 10 11 12 10 10 10 8 7 7 7 7 6 7 7 6 6 6 6 6 5 5 6 6 5 5 5 5 5 5 5 5 4 4 4 4 4 3 3 2 2 5 5 4 4 7 6 8 7
3 1 2 4 1 1 3 2 3 1 5 9 5 11 17 11 5 10 9 9 11 12 12 11 11 11 12 11 11 11 12 13 15 14 13 12 10 11 10 8 7 7 7 8 9 10 9 9 8 9 10 11 10 9 9 8 7 6 6 7 6 6 5 5 6 6 6 5 6 6 6 6 6 6 6 6 5 5 5 5 4 5 4 4 4 4 3 3 3 3 6 6 5 4 6 7 8
4 2 1 2 1 3 3 4 2 6 3 4 10 12 16 15 8 6 7 9 12 12 9 8 10 12 12 12 12 12 12 14 15 12 13 12 11 11 11 10 8 8 6 7 9 10 11 10 9 9 9 10 8 8 8 8 7 7 7 6 6 6 6 5 5 6 6 6 6 7 7 6 6 6 6 6 5 6 5 5 6 5 5 4 4 4 4 5 6 6 6 8 8 6 5 6 8
2 1 1 1 2 3 3 4 5 4 3 4 6 12 16 11 12 8 5 6 9 12 9 9 9 10 11 12 13 14 14 15 16 14 13 12 10 10 11 11 10 10 8 9 10 11 12 12 11 12 10 10 9 9 9 9 10 8 6 9 8 7 6 6 6 6 6 6 7 7 7 6 7 6 6 6 6 6 5 5 5 4 5 5 5 5 5 6 5 6 6 4 8 8 4 4 5
2 4 4 6 2 6 2 2 8 3 1 3 5 6 11 12 9 8 4 6 12 14 12 11 12 12 12 14 15 15 15 12 13 8 4 6 9 10 10 10 11 14 13 12 13 12 11 12 13 12 10 11 11 10 8 8 8 8 7 7 6 6 7 7 6 5 6 6 7 7 7 7 8 8 6 6 6 6 6 5 6 6 6 5 4 4 5 5 6 6 6 5 1 6 6 6 7
2 2 3 4 5 4 4 5 5 5 2 6 6 6 11 5 6 6 8 7 8 12 14 14 14 14 12 13 15 15 12 13 13 13 8 9 12 11 11 11 12 16 13 12 10 10 12 13 13 12 12 12 11 10 9 9 7 5 5 4 7 4 3 5 6 6 6 7 6 6 6 7 8 7 8 7 6 6 6 6 6 6 5 5 5 5 6 7 6 8 8 8 5 2 3 5 6
3 3 3 6 1 2 5 3 3 3 1 4 5 11 12 6 5 8 7 10 8 7 11 12 13 16 16 17 17 16 16 16 15 14 13 12 13 14 12 11 12 11 13 12 13 15 13 13 13 13 13 12 11 11 10 7 6 4 3 5 5 6 5 4 4 5 5 6 6 6 5 6 7 7 9 8 6 6 7 7 6 6 6 5 6 7 6 7 6 6 6 6 8 6 4 7 4
3 4 3 4 2 3 4 4 3 6 6 5 6 9 12 7 5 5 5 7 10 11 6 8 8 11 16 17 17 17 19 18 17 16 14 11 11 13 15 16 13 13 14 16 15 15 13 16 14 14 12 13 12 12 11 8 7 5 4 4 4 4 4 5 5 5 6 7 6 6 6 6 7 7 7 7 7 7 6 6 6 6 6 6 5 6 7 7 7 7 7 7 8 8 7 5 5
2 5 9 8 4 4 3 3 3 2 6 1 3 3 13 7 6 10 7 4 7 7 7 8 10 11 10 11 13 14 15 18 21 19 16 15 16 16 15 12 11 13 14 16 16 16 12 11 13 12 11 11 12 12 11 10 10 10 8 8 9 8 8 9 11 11 9 8 7 6 6 6 6 6 6 7 6 6 6 6 6 7 6 6 6 6 6 5 6 7 7 8 8 5 9 6 6
1 6 8 9 7 6 4 4 0 3 7 4 1 9 10 5 3 4 3 5 11 8 10 11 10 12 12 12 13 14 15 13 11 10 10 11 12 12 13 13 15 16 17 15 13 13 14 12 13 13 12 11 11 11 12 10 10 10 12 12 10 11 10 6 4 7 8 7 7 8 6 6 6 7 6 6 6 6 6 6 6 6 6 6 5 5 6 7 7 7 6 6 7 6 5 7 8
2 3 4 5 4 5 6 6 7 6 1 4 1 1 3 6 7 6 3 3 7 9 13 14 12 13 14 13 14 14 14 13 13 13 11 12 13 14 16 16 15 18 18 14 14 13 16 16 15 15 12 11 11 11 13 12 12 11 11 12 11 11 10 8 7 7 6 7 8 8 6 6 6 6 7 6 7 7 6 6 6 6 6 6 6 6 7 6 5 4 6 7 5 6 7 8 8
5 2 1 1 5 6 6 6 6 5 4 8 6 3 5 5 4 7 3 4 6 8 11 15 16 16 16 15 14 13 13 13 13 12 12 13 15 15 14 14 16 17 14 14 15 16 16 14 14 13 13 12 12 14 13 14 13 13 12 11 10 8 7 7 7 7 8 7 8 6 7 7 6 6 7 8 7 7 6 7 6 6 6 6 5 5 5 6 7 7 6 6 7 6 6 5 6
5 1 2 3 4 4 4 5 5 3 3 7 10 5 7 10 3 5 0 5 9 8 11 14 17 19 17 13 9 10 8 7 9 12 13 15 16 16 18 19 18 17 12 12 12 9 10 11 13 15 15 13 12 14 14 15 14 12 12 13 13 8 6 7 8 8 8 8 8 8 7 7 6 6 5 6 7 7 7 6 7 7 6 6 5 5 5 5 5 5 6 7 7 7 5 6 7
1 4 2 2 1 3 2 4 3 2 4 9 11 9 7 10 6 8 7 6 7 8 5 7 11 15 17 15 8 10 11 11 10 12 12 14 15 17 16 16 17 13 10 11 11 11 11 12 14 16 16 12 13 15 15 16 14 13 13 13 13 11 10 10 9 8 8 8 8 8 8 7 6 7 6 6 6 7 6 6 6 6 5 5 5 5 6 6 6 5 5 4 6 7 6 6 4
1 0 1 4 7 1 1 1 3 4 5 10 10 11 7 12 1 6 6 6 6 6 7 8 10 12 13 12 8 9 10 11 11 12 13 13 12 11 9 11 10 7 7 9 10 11 12 14 14 16 14 16 14 14 15 15 14 14 13 12 13 11 12 11 12 12 11 11 10 9 7 6 6 6 6 6 6 6 6 6 5 5 5 5 5 5 5 5 4 4 4 5 5 4 5 5 6
4 2 1 2 4 2 2 2 2 5 9 4 5 6 7 13 8 3 5 9 10 7 7 9 8 8 7 7 7 5 8 9 11 12 12 12 13 14 13 14 12 10 12 14 15 15 15 14 16 18 18 17 16 15 16 16 15 15 14 13 12 10 12 12 12 12 11 11 10 9 8 8 7 7 7 7 6 7 6 6 6 6 5 5 5 5 5 5 5 5 5 5 5 6 6 7 7
6 5 4 3 2 0 2 3 2 3 4 5 2 3 9 6 5 13 12 13 11 10 9 9 10 10 8 6 5 4 5 8 11 12 13 14 15 14 16 16 15 14 15 17 16 15 14 15 17 18 19 17 15 15 17 17 17 15 13 12 11 10 11 11 11 11 11 10 10 10 10 10 10 10 9 9 7 7 6 6 7 6 5 6 6 6 5 5 5 5 5 6 6 4 5 6 6
5 2 7 7 4 4 2 3 3 5 7 3 5 4 4 4 5 12 16 17 16 15 16 13 12 11 11 9 7 6 6 7 9 12 14 15 15 16 16 16 15 15 16 16 15 15 14 15 16 18 16 16 17 18 16 17 15 14 12 12 11 10 11 10 10 9 11 11 9 10 9 8 9 8 9 7 7 7 6 6 6 6 6 6 6 6 5 5 4 4 4 5 4 4 5 5 5
3 2 3 4 5 2 2 4 1 2 1 2 1 5 5 7 2 3 7 11 13 12 13 11 12 11 10 10 9 8 8 10 10 11 12 14 15 16 15 14 14 15 17 16 16 15 15 16 18 20 20 19 17 16 16 16 14 12 12 12 12 11 10 9 9 9 10 10 11 10 10 9 8 7 7 8 7 8 8 7 6 6 6 6 6 6 6 5 5 5 4 4 5 2 6 6 5
2 5 5 8 5 3 2 4 4 1 3 4 3 5 7 7 9 10 7 5 8 9 10 9 10 11 9 9 8 7 8 10 11 12 12 14 14 15 15 15 14 15 15 16 17 17 19 19 18 18 17 15 17 18 17 15 14 13 14 13 11 12 12 13 12 11 11 9 9 9 9 8 7 7 7 7 8 7 7 8 7 7 6 6 6 6 5 5 5 5 5 5 6 4 5 6 5
2 2 8 3 1 3 4 3 2 2 3 6 1 7 7 2 7 4 9 6 9 8 10 10 11 10 8 8 8 8 8 11 13 14 15 16 16 17 17 16 17 17 18 18 19 18 18 18 18 19 18 19 18 18 17 16 16 15 13 13 13 13 12 11 11 11 10 9 8 7 7 8 9 8 8 7 8 8 7 7 8 7 7 7 7 6 6 6 6 5 5 4 5 6 6 4 4
8 7 2 3 1 2 3 1 1 1 2 2 4 6 6 5 7 6 3 11 12 11 9 8 10 9 9 9 7 8 8 7 9 12 13 13 14 14 15 16 17 18 18 19 19 18 15 14 15 17 20 21 19 15 13 12 13 12 12 14 14 12 11 11 10 11 10 11 11 9 10 9 8 8 8 8 8 8 8 7 7 8 7 7 6 6 6 6 6 6 5 5 5 6 6 6 4
4 5 6 1 1 1 1 5 2 4 3 1 6 4 6 5 3 6 9 9 13 14 9 8 10 11 10 8 8 7 8 9 10 10 12 14 15 16 17 17 16 17 16 16 15 13 14 15 15 15 14 12 12 15 16 16 15 13 12 11 12 12 12 12 11 12 11 12 11 11 10 10 10 9 9 10 9 9 8 8 7 7 7 7 7 6 6 6 5 5 6 6 5 6 7 7 6
2 2 3 1 2 2 3 0 2 4 2 2 2 4 4 7 6 5 8 5 6 7 11 12 10 7 7 8 9 8 6 8 10 11 13 14 15 15 16 16 16 17 17 15 14 16 17 14 14 14 17 18 18 17 15 14 13 13 13 15 14 13 13 11 12 12 12 11 11 10 10 10 9 9 9 10 9 9 9 9 9 8 8 8 7 7 6 6 6 6 5 6 6 6 7 6 6
1 5 6 5 2 2 3 7 1 1 2 2 2 7 6 9 3 5 6 7 6 7 6 6 6 7 7 7 7 8 8 7 9 10 11 13 14 15 15 15 15 13 10 11 13 14 13 14 16 16 16 15 17 16 16 16 14 14 15 14 13 12 12 11 13 12 12 11 11 11 10 9 11 10 10 11 10 9 8 9 9 8 8 8 7 8 7 6 7 7 6 5 6 7 7 7 6
Wind_Direction
11 97 124 132 100 115 7 346 82 314 49 296 340 343 324 278 219 121 175 85 157 252 210 164 159 172 168 208 181 157 127 124 188 133 213 219 149 159 138 138 136 144 150 153 157 161 154 156 154 154 153 149 148 150 149 146 145 138 136 135 133 131 130 130 128 126 125 124 124 125 130 135 139 141 137 132 138 135 119 119 116 115 110 115 116 112 109 104 97 93 92 89 88 85 80 79 76
50 118 117 137 151 60 273 116 100 357 43 29 251 121 260 300 53 2 308 201 232 195 96 110 76 93 47 75 118 116 7 26 149 121 97 121 117 131 143 143 146 151 153 157 157 152 152 156 155 154 153 151 151 152 151 149 148 140 138 138 136 134 133 132 130 128 127 126 125 124 128 135 139 140 138 141 148 129 128 128 123 119 118 119 115 113 108 100 96 90 88 86 83 82 81 74 69
104 130 85 25 35 70 279 38 336 57 51 349 276 220 309 63 287 271 139 261 278 97 127 107 124 37 83 50 93 11 195 9 75 100 108 134 132 183 150 148 146 151 150 157 154 149 153 156 155 155 154 153 154 154 153 154 150 142 140 142 141 137 134 133 131 130 129 128 127 127 128 133 137 141 145 152 154 138 135 136 126 119 121 120 118 114 106 98 93 88 86 82 80 78 72 67 62
111 348 132 100 105 16 74 26 91 128 338 217 302 290 13 126 275 241 157 163 135 161 126 188 89 236 92 131 208 109 53 158 206 137 136 174 175 148 145 149 143 145 151 156 152 149 152 159 155 157 156 156 156 155 156 156 153 144 144 148 145 139 137 137 134 132 131 130 130 129 130 130 129 133 139 145 144 147 147 130 124 127 123 120 119 115 106 95 87 86 82 80 77 70 65 58 51
106 273 104 92 117 355 105 162 150 96 211 203 162 273 295 257 288 234 172 128 166 206 358 304 85 309 188 184 307 115 222 65 80 110 122 127 117 140 140 143 143 148 157 156 151 148 156 156 155 158 157 159 158 156 158 158 154 147 148 151 148 141 138 140 137 134 133 132 132 134 134 133 129 130 135 136 139 144 181 137 125 127 125 123 115 103 94 85 80 82 79 76 71 63 58 53 48
97 76 328 99 346 183 55 68 357 178 219 157 87 246 259 279 275 168 128 141 184 221 252 316 181 189 112 294 159 25 107 195 172 177 140 148 137 137 140 142 147 149 156 153 152 151 158 156 155 159 159 161 160 157 159 158 155 149 149 154 150 146 144 142 144 141 134 133 131 135 137 135 129 124 124 124 108 104 118 121 120 118 121 116 111 109 102 89 80 77 75 71 66 60 57 52 47
141 95 346 17 358 65 166 164 203 200 264 149 166 216 244 277 88 112 135 106 248 276 258 245 137 118 67 293 22 99 8 26 126 187 150 139 132 137 143 146 146 147 152 155 150 153 160 153 154 160 163 163 161 158 161 160 156 153 149 155 154 148 142 146 151 143 135 134 133 134 138 135 128 126 116 110 113 107 109 111 116 119 117 118 114 112 97 84 76 72 70 67 64 62 58 53 47
354 96 215 107 219 46 218 218 231 160 270 126 201 147 225 152 151 153 165 158 208 185 275 180 215 93 257 5 168 298 21 3 85 106 121 128 133 137 144 149 147 150 153 154 153 158 162 154 156 162 165 166 162 161 162 161 158 154 151 156 156 149 147 149 152 142 137 137 137 135 134 131 128 124 114 116 111 109 113 118 121 121 118 113 110 103 90 82 74 69 66 64 64 62 58 52 47
79 85 342 65 235 27 13 227 222 229 285 107 237 225 189 170 164 157 176 187 17 351 302 177 279 128 207 55 99 295 36 47 66 104 128 131 134 142 145 152 150 150 156 156 155 162 159 157 157 164 167 166 164 163 163 163 159 156 153 156 156 151 149 153 155 143 139 139 138 137 134 132 127 124 120 125 132 120 118 120 121 122 119 114 108 103 93 79 70 67 63 63 64 62 58 52 48
44 108 244 165 119 230 275 285 156 220 229 143 164 205 222 156 185 171 178 64 313 63 303 10 322 146 158 124 45 341 49 102 106 89 105 134 134 139 142 152 152 152 157 157 159 164 158 163 160 162 168 167 166 165 165 163 161 158 156 157 155 153 151 156 155 143 142 142 142 139 136 132 134 128 124 130 138 134 130 127 126 124 121 115 112 99 86 75 66 58 58 60 62 61 57 51 47
208 9 132 104 247 228 214 257 246 292 264 142 215 222 216 111 129 162 132 159 68 119 299 18 9 336 13 333 169 257 141 140 131 134 136 130 129 133 138 147 152 160 157 158 162 160 162 164 162 167 169 166 166 164 164 163 162 159 156 152 152 155 155 156 155 146 145 143 143 142 141 140 140 141 135 135 135 136 137 136 133 129 124 119 109 94 86 71 62 55 57 61 61 60 55 49 47
292 143 64 175 205 182 227 217 256 225 262 277 200 217 243 143 118 102 138 119 35 52 55 76 252 139 17 346 322 13 114 97 93 131 135 135 131 135 140 141 148 158 161 156 158 155 159 164 159 170 167 165 163 163 163 163 161 158 154 152 155 157 159 159 157 149 149 146 143 144 145 146 147 148 151 145 141 142 143 142 139 135 128 122 108 97 84 70 58 54 57 61 61 58 55 48 47
150 144 77 106 225 165 218 224 258 155 201 236 164 219 175 120 139 151 148 145 154 112 257 176 168 67 56 279 296 247 158 67 126 137 135 137 133 134 131 137 146 154 160 160 156 158 158 162 161 166 164 165 162 164 166 164 160 158 155 155 157 158 161 160 159 157 155 153 149 152 154 152 152 152 151 160 162 144 145 149 149 141 133 120 107 97 81 68 59 56 56 57 55 55 53 46 45
132 179 134 235 70 147 160 225 256 176 237 174 178 191 200 132 193 155 132 134 180 159 211 145 124 125 120 49 299 268 232 121 132 133 131 130 128 132 136 138 145 154 161 161 157 160 159 157 159 158 161 161 163 165 170 168 163 156 156 158 157 158 159 161 163 161 161 160 157 159 162 164 156 156 158 159 159 153 157 157 157 153 134 119 108 92 75 64 58 54 52 50 49 49 48 45 43
195 189 90 125 256 147 225 196 218 244 248 150 200 162 132 268 131 149 142 161 215 329 70 98 158 134 242 144 265 177 180 145 136 131 123 118 119 126 135 142 146 154 159 165 158 160 162 155 153 154 153 150 156 156 171 173 170 161 161 160 159 159 160 163 167 171 167 166 166 168 172 170 164 162 166 165 164 156 160 164 160 162 152 130 95 84 69 60 54 51 47 43 44 47 44 44 43
167 98 84 222 239 199 250 196 233 260 266 141 203 150 116 79 102 109 257 161 158 117 134 175 249 209 179 168 186 161 146 139 135 119 112 109 110 117 133 149 155 158 158 161 164 166 160 155 151 150 150 151 151 156 170 178 173 167 165 163 162 162 163 164 170 170 172 172 176 180 179 179 173 167 168 171 169 162 152 107 148 172 131 140 96 75 64 55 47 42 37 34 35 44 41 43 41
63 110 193 208 233 212 212 189 167 228 334 54 152 128 121 230 239 18 23 71 119 108 36 356 152 1 85 130 138 134 132 128 123 129 125 123 126 132 145 154 157 161 163 166 172 170 161 160 159 154 157 157 157 160 168 174 181 171 168 166 166 165 163 166 168 179 185 191 183 190 188 146 135 169 164 158 177 139 116 125 131 171 132 138 104 60 56 50 39 26 22 24 29 35 35 41 30
123 189 205 221 221 218 184 199 185 204 234 184 196 149 119 101 356 59 69 35 63 86 59 307 19 25 46 81 128 133 133 132 134 143 150 146 152 153 162 167 166 171 172 170 179 174 168 171 168 162 162 165 161 162 164 172 189 168 158 165 160 164 163 167 176 153 188 99 197 191 131 147 122 125 121 165 77 132 151 150 145 131 121 93 66 43 41 38 24 14 12 16 23 25 29 33 37
181 181 197 223 208 225 155 202 196 164 226 109 344 43 113 174 149 198 104 9 126 116 27 23 19 21 48 85 121 134 140 137 144 161 162 163 168 166 169 169 175 172 178 175 177 179 181 175 172 169 171 167 163 166 166 170 176 141 156 153 158 159 160 156 107 136 68 137 47 101 132 104 134 135 147 139 116 128 146 171 170 154 165 173 111 1 19 16 13 7 11 10 22 34 30 35 48
230 162 213 226 190 211 203 186 207 213 176 111 272 259 134 203 172 183 134 155 161 155 147 15 41 224 104 129 143 145 146 149 155 168 174 173 172 171 173 175 178 184 181 180 174 178 185 181 178 176 175 171 169 168 169 166 155 148 149 140 140 129 111 109 123 102 117 116 107 106 130 144 123 149 196 178 168 139 161 175 177 183 168 93 60 38 28 22 4 3 12 32 36 42 27 27 54
258 207 222 214 181 187 232 195 207 210 171 173 187 354 305 195 209 162 132 123 256 222 171 158 198 200 158 154 153 150 158 160 163 174 178 179 177 178 181 184 184 180 180 172 173 182 185 179 178 179 179 174 171 169 173 171 153 149 146 135 126 122 108 110 122 122 137 139 122 136 149 157 130 134 32 26 82 124 121 84 38 47 68 72 52 21 17 335 356 354 17 36 46 50 37 24 56
149 222 230 154 187 205 216 209 209 199 180 156 148 245 235 269 316 161 150 154 201 216 184 185 197 183 150 161 164 158 168 172 173 178 187 183 178 183 182 186 165 176 177 180 186 183 184 180 181 177 178 179 177 172 173 173 161 161 151 146 137 123 123 133 136 146 144 154 142 143 157 146 142 132 116 93 74 114 136 123 81 70 66 94 59 25 339 348 332 4 41 37 44 62 67 54 76
235 256 243 217 190 191 207 203 221 209 180 156 153 208 250 145 218 216 167 169 196 187 195 190 175 173 171 150 150 167 174 182 183 189 186 188 184 180 182 184 179 179 187 192 186 187 182 182 184 178 179 179 182 175 169 177 166 163 154 150 157 152 153 143 161 158 155 157 146 151 151 157 150 144 162 183 134 129 145 161 153 78 92 92 129 134 329 336 342 358 59 68 71 76 80 72 95
243 238 209 235 181 210 198 198 203 209 206 200 175 154 169 163 193 237 236 223 192 193 176 167 162 160 138 152 176 176 185 182 191 191 189 185 181 187 184 181 185 189 193 189 187 183 186 185 184 181 181 179 181 177 171 181 162 160 166 174 174 172 168 177 177 179 158 157 152 153 162 155 156 162 179 182 185 149 168 148 145 147 119 117 220 163 146 76 37 60 66 70 81 93 93 91 101
241 248 261 276 201 236 248 232 212 209 223 205 154 166 174 180 180 189 226 219 212 211 167 149 158 147 162 166 179 188 192 193 186 182 183 196 195 185 181 182 180 183 198 195 191 185 188 184 185 186 183 182 180 177 178 180 165 166 169 178 169 184 177 190 185 171 166 160 150 155 169 162 161 170 178 186 150 171 150 156 167 166 147 195 190 152 150 130 115 124 97 107 111 110 111 111 118
255 275 338 317 305 296 243 245 230 219 217 179 182 219 210 201 153 190 191 223 207 185 79 117 126 151 174 185 188 186 192 192 182 180 191 182 180 183 191 188 186 193 198 191 190 193 186 183 187 187 185 183 180 179 181 180 172 166 169 177 165 181 173 175 171 178 171 156 158 165 189 168 191 181 181 166 168 175 168 170 173 169 165 175 158 171 152 142 171 127 115 124 125 123 124 138 129
8 315 310 323 288 299 278 213 236 216 225 173 206 219 228 228 160 247 215 195 202 183 157 139 143 170 192 199 199 196 191 188 185 185 160 179 185 193 193 191 194 198 189 193 195 196 188 183 186 187 184 183 183 183 181 180 172 177 173 174 166 182 168 162 173 173 167 169 172 175 186 192 183 187 177 175 177 167 175 178 181 161 155 167 159 168 152 141 159 171 171 151 135 125 126 143 138
319 289 297 316 292 281 278 293 236 165 257 200 202 227 216 214 193 237 219 208 180 198 183 152 162 178 190 206 205 204 207 202 182 163 182 178 192 194 193 191 191 193 191 193 194 193 192 190 185 185 181 184 185 187 182 178 178 179 176 172 175 174 159 164 168 169 176 184 180 178 188 198 191 188 181 178 176 172 176 174 163 153 150 154 160 159 147 140 153 174 153 125 114 102 97 97 132
274 21 321 289 320 306 257 224 227 177 236 178 164 238 237 190 222 228 224 188 189 197 202 174 177 185 192 197 205 207 209 178 185 195 198 197 194 187 190 186 184 186 196 192 190 187 195 189 187 184 181 183 188 188 185 180 177 178 179 182 174 171 168 160 172 177 179 188 187 182 191 198 196 186 186 180 183 175 169 160 156 158 151 155 161 168 158 133 134 128 98 99 96 94 91 84 94
338 139 171 308 309 276 243 243 212 183 229 164 131 230 217 219 221 228 222 173 168 187 188 182 187 187 194 193 195 203 172 176 193 206 205 207 194 192 189 185 184 184 181 184 189 194 189 189 187 182 183 184 188 187 185 182 180 180 184 174 172 166 170 171 179 176 179 185 189 187 188 196 193 178 171 174 165 164 160 164 158 160 156 156 156 164 156 152 138 130 129 101 89 88 92 91 111
204 254 140 191 233 236 180 187 189 211 178 175 168 228 228 219 226 227 223 178 161 179 184 181 187 192 195 192 193 194 195 196 201 202 202 204 219 208 194 184 184 182 176 180 189 193 187 186 183 186 184 185 189 190 190 187 179 182 181 173 171 170 170 178 179 173 179 184 180 185 185 191 186 173 166 166 167 162 157 152 164 167 156 153 152 161 142 146 141 131 129 106 87 84 85 81 96
305 222 221 240 204 238 255 247 188 207 220 176 175 232 232 212 225 222 204 167 185 193 181 181 185 192 194 193 195 193 199 207 210 198 197 193 190 197 203 198 186 182 181 178 181 183 194 191 184 182 183 187 190 190 192 187 181 183 183 177 170 168 170 179 177 178 180 179 180 177 178 188 180 173 166 163 161 167 161 161 166 158 159 144 146 143 142 149 139 113 99 129 110 86 94 77 64
330 190 297 227 191 243 331 251 197 222 195 226 194 227 232 234 231 224 180 177 185 202 183 182 185 190 194 198 196 196 201 206 201 202 200 193 196 192 197 206 199 187 173 172 177 177 195 196 189 183 185 187 187 188 192 190 181 182 182 179 171 167 173 180 177 171 173 179 179 175 171 181 173 172 169 166 161 161 156 152 161 164 156 149 149 146 143 153 143 121 97 89 119 117 105 96 78
282 310 224 10 190 324 221 308 345 191 203 227 233 233 233 206 211 213 188 180 188 196 201 188 188 187 190 197 200 199 199 201 206 203 202 194 192 190 191 204 205 189 181 175 175 177 184 193 199 192 186 187 187 187 190 190 186 181 179 178 168 172 179 177 170 165 178 180 171 178 171 176 169 171 169 165 157 160 154 153 159 163 156 147 147 146 149 142 124 128 110 77 105 121 116 115 105
259 302 357 322 306 142 238 77 264 18 198 219 236 239 243 232 242 204 197 189 186 199 202 196 188 189 190 192 199 205 204 204 215 208 200 196 184 184 184 189 192 199 191 178 174 177 179 185 192 198 191 189 188 186 187 190 187 183 177 171 171 175 179 177 163 171 181 172 179 176 171 172 168 168 165 161 153 154 150 154 158 164 157 151 151 152 147 144 122 111 124 101 68 70 124 123 122
105 129 173 160 113 258 189 243 306 50 3 250 221 229 238 233 235 238 206 183 190 213 205 199 195 193 190 191 197 201 208 216 223 209 197 197 189 177 179 175 177 186 190 181 179 179 181 184 188 193 194 191 189 188 185 188 188 187 180 172 177 182 176 176 174 180 176 179 178 170 172 169 163 165 163 160 154 152 154 158 161 160 158 154 155 156 151 157 150 127 127 121 105 83 65 114 121
312 320 241 227 247 291 287 294 263 34 326 239 223 246 249 242 231 233 218 198 204 212 201 195 196 193 195 197 198 201 205 214 222 212 200 196 190 182 176 172 170 173 185 187 187 188 185 184 184 192 190 190 192 194 194 187 189 188 191 190 189 175 174 174 176 180 180 182 172 170 168 165 161 160 163 159 161 158 155 153 153 155 160 163 166 177 164 154 144 140 129 119 126 116 99 126 129
285 282 300 287 203 269 245 287 305 343 16 288 298 285 267 253 247 232 218 184 205 210 205 197 196 194 195 198 202 203 208 217 226 227 178 154 176 182 179 176 167 173 192 187 193 192 186 186 190 188 187 192 198 200 198 201 200 200 190 188 169 159 164 172 180 179 180 171 168 167 164 160 164 167 161 163 160 156 155 159 162 165 167 173 167 147 147 136 130 136 134 99 56 133 145 171 170
320 260 275 297 273 234 260 251 260 282 211 252 278 290 275 269 268 255 219 198 225 211 202 197 192 195 197 201 204 205 206 215 219 221 183 180 183 182 182 181 185 187 177 184 189 190 195 192 193 189 188 189 195 196 197 202 198 194 184 163 169 139 158 173 169 173 166 165 166 163 157 159 161 162 162 163 163 163 165 163 167 160 166 160 138 146 149 144 154 157 160 145 129 56 109 181 184
239 296 287 251 298 349 305 293 314 305 225 294 304 294 282 274 250 259 244 219 227 227 221 208 195 194 197 199 199 201 203 208 216 213 194 185 181 182 184 186 189 181 178 185 188 193 194 198 195 191 189 189 193 196 198 197 190 177 161 149 158 156 164 153 145 145 150 143 157 157 156 158 161 162 165 165 165 162 167 173 158 157 162 166 159 152 159 157 161 167 163 158 145 140 159 196 207
236 205 218 246 229 221 199 263 318 308 292 203 271 288 283 251 252 272 271 237 233 232 223 240 231 215 203 203 202 198 198 204 210 211 205 182 177 185 190 194 183 182 187 189 192 193 197 197 194 191 187 190 193 193 190 178 171 167 150 124 130 102 90 142 143 154 164 163 152 158 162 158 163 162 164 166 164 165 170 168 163 163 159 165 161 156 164 171 175 175 170 160 173 160 177 185 202
292 224 206 222 208 227 270 286 303 3 317 284 150 307 257 257 228 220 229 249 237 236 221 231 230 229 227 222 215 210 213 205 200 204 199 188 188 193 197 189 180 191 195 198 195 194 189 192 193 191 190 190 192 191 185 177 184 181 171 167 175 180 178 177 187 177 166 165 162 151 152 164 161 161 164 161 161 158 170 171 165 159 162 161 169 169 163 149 169 176 186 177 185 192 166 166 190
146 273 199 213 213 210 210 247 240 232 233 274 155 214 266 3 323 253 249 210 226 230 214 222 222 229 226 217 213 209 206 217 235 222 197 189 195 194 197 189 190 195 204 197 190 189 189 188 189 189 191 191 190 188 182 181 186 192 192 192 189 190 191 194 154 156 163 160 150 162 161 158 164 161 162 160 159 166 164 167 165 166 164 165 161 153 164 179 179 186 184 188 192 171 148 172 186
230 240 148 195 196 203 219 210 201 235 269 285 44 206 276 290 283 265 237 269 258 238 226 224 219 221 224 219 218 215 210 208 206 204 190 190 193 196 197 197 196 202 201 190 189 188 189 191 187 189 188 188 187 184 186 186 188 191 195 199 195 194 195 173 159 149 150 151 154 160 155 163 165 165 157 161 163 165 164 165 162 159 160 165 158 169 179 185 169 173 186 194 179 181 175 174 185
219 319 103 241 209 213 214 187 213 227 222 264 270 194 261 247 249 265 193 257 266 252 239 230 226 226 223 219 217 218 215 206 201 201 198 193 196 200 205 206 209 209 199 187 190 193 191 186 185 185 189 185 187 186 186 190 192 191 194 195 200 200 176 152 144 147 152 157 153 151 159 166 165 163 165 164 166 166 168 164 161 158 159 166 167 164 171 175 183 174 170 175 184 189 188 179 161
271 220 310 249 233 235 212 203 198 229 162 247 244 184 240 261 237 223 341 195 237 237 230 234 231 229 230 220 209 218 222 211 207 206 200 198 201 203 203 204 204 207 195 196 201 188 179 179 185 187 191 187 184 188 189 191 193 191 195 198 196 182 154 144 150 156 159 159 157 160 166 165 161 160 163 166 163 169 165 160 163 165 167 162 153 167 162 177 191 188 187 187 183 184 189 171 178
309 348 320 342 358 233 217 187 173 183 226 239 235 229 199 267 191 190 197 215 206 237 258 248 243 243 238 235 187 200 204 207 203 204 204 205 205 205 204 206 211 204 188 186 186 188 185 183 187 190 192 184 185 190 189 193 193 195 199 196 192 178 164 154 155 159 159 162 163 167 172 169 163 163 161 170 173 164 160 161 163 166 157 156 148 155 176 183 189 186 174 164 174 176 175 167 151
130 330 29 354 329 34 100 300 130 192 249 242 228 234 195 239 199 208 220 244 228 208 234 248 247 242 245 241 221 197 203 205 206 204 207 203 206 216 212 219 216 194 178 187 188 184 187 189 188 191 189 190 189 189 191 194 194 198 200 193 192 182 168 168 170 170 171 171 170 173 165 150 158 153 159 161 172 166 156 155 153 148 153 147 162 167 166 169 157 148 152 159 153 143 146 157 160
129 126 76 83 261 41 327 134 228 213 224 230 198 210 263 239 234 242 254 246 252 238 232 248 255 266 264 264 256 200 206 202 202 205 205 202 203 204 204 211 201 181 184 189 192 191 189 188 189 189 194 191 190 188 192 194 196 200 195 193 193 179 176 173 174 172 173 173 172 166 165 166 154 157 174 172 182 170 158 150 154 155 155 164 154 149 150 150 154 155 156 149 151 161 171 167 172
162 177 165 141 203 131 232 260 202 254 295 274 246 195 242 294 261 194 230 246 245 242 238 242 250 256 260 261 270 240 220 214 206 203 202 202 203 204 205 206 199 192 191 192 191 190 189 190 191 194 198 190 186 188 192 194 200 198 192 191 188 177 180 178 179 174 176 175 172 171 175 173 174 178 173 181 169 165 165 166 163 164 155 147 146 146 145 153 155 153 152 147 154 155 145 159 160
197 176 155 174 171 148 202 199 215 217 226 257 223 204 234 182 248 189 205 223 236 241 248 245 245 249 259 258 245 239 228 223 219 211 206 203 204 203 205 205 200 195 196 195 191 191 189 190 190 197 195 189 189 192 191 196 199 194 191 190 184 179 179 180 180 176 173 174 173 171 178 170 172 180 174 154 158 164 161 157 160 152 149 147 137 136 131 137 136 117 121 123 118 136 133 132 136
211 185 108 95 220 163 215 214 186 288 302 333 166 194 202 210 227 260 224 219 222 232 238 243 250 254 251 251 246 234 220 218 216 219 217 212 206 205 207 206 201 199 198 196 193 189 189 193 193 195 193 190 189 189 193 196 194 189 189 188 185 179 178 176 176 178 181 173 168 173 175 174 176 163 149 155 162 160 159 158 154 152 146 143 140 139 145 144 143 130 118 125 119 122 128 127 133
252 152 214 207 178 106 276 320 256 187 37 268 231 330 301 294 287 247 243 279 276 248 243 241 241 248 247 250 248 228 220 217 214 215 217 215 212 209 207 204 202 200 198 197 195 191 193 192 193 193 193 188 190 193 193 191 189 187 191 185 179 180 180 182 181 178 174 168 169 171 169 170 158 157 156 159 157 161 159 158 154 149 149 143 138 142 144 143 141 136 137 136 128 123 113 128 135
90 163 231 224 165 181 145 202 275 197 189 259 156 231 268 269 271 279 233 240 258 256 240 237 241 242 246 244 249 238 219 216 217 214 213 213 211 209 205 205 202 200 198 197 197 197 197 194 191 189 187 189 193 191 189 188 189 189 184 184 184 183 182 181 177 174 168 161 165 162 150 153 170 166 159 160 157 156 158 156 149 149 144 141 143 140 141 141 133 122 130 121 127 127 113 103 121
203 208 198 128 235 205 287 187 290 262 252 252 275 242 247 196 248 342 267 215 235 249 251 259 263 256 247 250 239 243 239 225 221 222 220 218 216 214 211 208 204 201 199 199 199 196 195 193 192 190 191 194 190 187 187 187 187 189 187 186 181 180 181 178 174 170 167 167 167 166 167 169 156 155 153 153 156 159 158 152 149 143 143 141 136 143 142 141 138 126 127 124 130 129 127 126 134
252 341 315 237 105 192 109 191 184 108 256 359 289 262 251 221 210 235 253 225 219 224 243 254 246 250 255 257 256 239 235 229 222 218 219 218 215 212 209 208 206 203 202 201 195 189 194 195 191 191 192 181 178 187 188 189 189 186 184 180 181 180 177 176 173 170 173 175 172 167 164 161 169 163 162 159 161 163 160 152 150 145 143 136 141 145 148 141 134 137 137 135 142 135 130 136 132
202 194 286 294 206 216 137 39 131 164 196 174 233 307 286 255 218 197 235 232 251 256 235 230 251 271 262 254 256 258 246 235 229 217 215 218 219 216 213 212 210 206 203 195 186 187 192 189 191 189 184 185 188 190 186 190 184 186 180 182 181 177 177 173 171 175 175 176 172 170 170 169 157 166 158 161 164 163 160 154 149 152 151 151 151 150 149 140 132 130 133 136 141 142 134 134 129
161 173 214 189 187 225 245 266 26 107 116 226 213 258 261 270 230 235 266 266 266 249 229 254 254 259 274 275 262 255 261 253 240 237 230 222 219 219 218 212 212 205 190 183 189 190 185 185 192 190 187 189 188 186 188 187 186 185 183 181 177 175 171 172 172 176 177 175 174 173 170 158 166 164 164 164 163 158 155 153 153 152 154 151 153 152 149 145 138 136 137 148 147 143 137 135 135